sat.trackr.live / text

‹ back to catalog

STARLINK-36554

NORAD 67502 · 2026-012K

PAYLOAD ACTIVE UNKNOWN

§ Identity

Operator
Country
US
Launch date
2026-01-18
Launch site
AFETR
Launch vehicle
Mass (kg)
RCS (m²)

Purposes: comms

External: N2YO · Heavens-Above · Gunter

§ Orbital elements

Epoch: 2026-05-24T14:34:16.000032Z

Period
94.27 min
Inclination
43.0023°
Eccentricity
0.0002166
Mean motion
15.27597792 rev/d
Perigee alt
481.5 km
Apogee alt
484.5 km
Semi-major
6,861.1 km
B*
6.0615e-4
RAAN
245.5536°
Arg perigee
243.5795°
Mean anomaly
116.4835°
Rev number
1,937

§ Raw data

STARLINK-365541 67502U 26012K   26144.60712963  .00016464  00000+0  60615-3 0  99932 67502  43.0023 245.5536 0002166 243.5795 116.4835 15.27597792 19376

JSON: /api/v1/satellites/67502 · /tle

For live sub-satellite position, see the globe view (requires WebGL).

§ Visibility from observer

Set your observer location to see the next 7 days of passes ≥ 10°. The values pass through the URL so the page stays shareable.

No JS? Fill the form by hand. The geolocation button needs JavaScript.